Time,TemperatureF,DewpointF,PressureIn,WindDirection,WindDirectionDegrees,WindSpeedMPH,WindSpeedGustMPH,Humidity,HourlyPrecipIn,Conditions,Clouds,dailyrainin,SoftwareType,DateUTC
2013-03-03 00:02:00,24.0,24.0,-100.00,NNE,20,8.0,12.0,99,-99.99,,,-99.99,,2013-03-03 05:02:00,
2013-03-03 00:12:00,24.0,24.0,-100.00,North,0,7.0,12.0,99,-99.99,,,-99.99,,2013-03-03 05:12:00,
2013-03-03 00:22:00,24.0,24.0,-100.00,North,0,9.0,14.0,99,-99.99,,,-99.99,,2013-03-03 05:22:00,
2013-03-03 00:32:00,24.0,24.0,-100.00,North,0,10.0,16.0,100,-99.99,,,-99.99,,2013-03-03 05:32:00,
2013-03-03 00:42:00,24.0,24.0,-100.00,North,5,6.0,12.0,100,-99.99,,,-99.99,,2013-03-03 05:42:00,
2013-03-03 00:52:00,24.0,24.0,-100.00,North,0,9.0,12.0,99,-99.99,,,-99.99,,2013-03-03 05:52:00,
2013-03-03 01:02:00,24.0,24.0,-100.00,North,0,8.0,14.0,99,-99.99,,,-99.99,,2013-03-03 06:02:00,
2013-03-03 01:11:00,24.0,24.0,-100.00,North,0,5.0,11.0,99,-99.99,,,-99.99,,2013-03-03 06:11:00,
2013-03-03 01:21:00,23.0,23.0,-100.00,North,0,9.0,13.0,99,-99.99,,,-99.99,,2013-03-03 06:21:00,
2013-03-03 01:32:00,23.0,23.0,-100.00,North,0,9.0,13.0,99,-99.99,,,-99.99,,2013-03-03 06:32:00,
2013-03-03 01:42:00,23.0,23.0,-100.00,North,0,6.0,11.0,100,-99.99,,,-99.99,,2013-03-03 06:42:00,
2013-03-03 01:52:00,23.0,23.0,-100.00,North,0,9.0,15.0,99,-99.99,,,-99.99,,2013-03-03 06:52:00,
2013-03-03 02:01:00,24.0,24.0,-100.00,North,0,8.0,13.0,99,-99.99,,,-99.99,,2013-03-03 07:01:00,
2013-03-03 02:11:00,23.0,23.0,-100.00,North,0,6.0,14.0,99,-99.99,,,-99.99,,2013-03-03 07:11:00,
2013-03-03 02:21:00,23.0,23.0,-100.00,North,0,6.0,15.0,99,-99.99,,,-99.99,,2013-03-03 07:21:00,
2013-03-03 02:32:00,23.0,23.0,-100.00,North,0,6.0,15.0,99,-99.99,,,-99.99,,2013-03-03 07:32:00,
2013-03-03 02:42:00,23.0,23.0,-100.00,North,0,7.0,12.0,99,-99.99,,,-99.99,,2013-03-03 07:42:00,
2013-03-03 02:51:00,23.0,23.0,-100.00,North,0,9.0,14.0,99,-99.99,,,-99.99,,2013-03-03 07:51:00,
2013-03-03 03:01:00,23.0,23.0,-100.00,North,355,10.0,16.0,99,-99.99,,,-99.99,,2013-03-03 08:01:00,
2013-03-03 03:11:00,23.0,23.0,-100.00,North,0,9.0,12.0,99,-99.99,,,-99.99,,2013-03-03 08:11:00,
2013-03-03 03:21:00,23.0,23.0,-100.00,North,5,8.0,13.0,99,-99.99,,,-99.99,,2013-03-03 08:21:00,
2013-03-03 03:32:00,23.0,22.0,-100.00,North,0,9.0,15.0,99,-99.99,,,-99.99,,2013-03-03 08:32:00,
2013-03-03 03:41:00,23.0,22.0,-100.00,North,0,6.0,16.0,99,-99.99,,,-99.99,,2013-03-03 08:41:00,
2013-03-03 03:53:00,23.0,23.0,-100.00,North,0,6.0,12.0,100,-99.99,,,-99.99,,2013-03-03 08:53:00,
2013-03-03 04:02:00,22.0,22.0,-100.00,North,0,7.0,15.0,99,-99.99,,,-99.99,,2013-03-03 09:02:00,
2013-03-03 04:11:00,22.0,22.0,-100.00,North,5,7.0,16.0,99,-99.99,,,-99.99,,2013-03-03 09:11:00,
2013-03-03 04:21:00,22.0,22.0,-100.00,North,10,7.0,12.0,99,-99.99,,,-99.99,,2013-03-03 09:21:00,
2013-03-03 04:32:00,22.0,22.0,-100.00,North,10,7.0,13.0,99,-99.99,,,-99.99,,2013-03-03 09:32:00,
2013-03-03 04:41:00,22.0,22.0,-100.00,North,0,6.0,12.0,99,-99.99,,,-99.99,,2013-03-03 09:41:00,
2013-03-03 04:51:00,22.0,22.0,-100.00,NNE,15,6.0,9.0,99,-99.99,,,-99.99,,2013-03-03 09:51:00,
2013-03-03 05:01:00,22.0,22.0,-100.00,North,10,6.0,10.0,99,-99.99,,,-99.99,,2013-03-03 10:01:00,
2013-03-03 05:11:00,22.0,22.0,-100.00,NNE,15,4.0,11.0,99,-99.99,,,-99.99,,2013-03-03 10:11:00,
2013-03-03 05:21:00,22.0,22.0,-100.00,North,0,7.0,10.0,99,-99.99,,,-99.99,,2013-03-03 10:21:00,
2013-03-03 05:32:00,22.0,22.0,-100.00,North,0,4.0,11.0,99,-99.99,,,-99.99,,2013-03-03 10:32:00,
2013-03-03 05:42:00,22.0,22.0,-100.00,North,0,4.0,7.0,100,-99.99,,,-99.99,,2013-03-03 10:42:00,
2013-03-03 05:52:00,22.0,22.0,-100.00,North,0,7.0,11.0,99,-99.99,,,-99.99,,2013-03-03 10:52:00,
2013-03-03 06:01:00,22.0,22.0,-100.00,NW,325,4.0,10.0,99,-99.99,,,-99.99,,2013-03-03 11:01:00,
2013-03-03 06:11:00,22.0,22.0,-100.00,NW,325,7.0,11.0,99,-99.99,,,-99.99,,2013-03-03 11:11:00,
2013-03-03 06:22:00,22.0,22.0,-100.00,NNW,330,6.0,10.0,99,-99.99,,,-99.99,,2013-03-03 11:22:00,
2013-03-03 06:32:00,22.0,22.0,-100.00,NW,315,7.0,10.0,99,-99.99,,,-99.99,,2013-03-03 11:32:00,
2013-03-03 06:42:00,22.0,22.0,-100.00,NNW,345,6.0,10.0,100,-99.99,,,-99.99,,2013-03-03 11:42:00,
2013-03-03 06:52:00,22.0,22.0,-100.00,NNW,335,6.0,9.0,99,-99.99,,,-99.99,,2013-03-03 11:52:00,
2013-03-03 07:02:00,22.0,22.0,-100.00,NNW,335,6.0,9.0,99,-99.99,,,-99.99,,2013-03-03 12:02:00,
2013-03-03 07:11:00,23.0,23.0,-100.00,North,355,6.0,12.0,100,-99.99,,,-99.99,,2013-03-03 12:11:00,
2013-03-03 07:21:00,23.0,23.0,-100.00,North,355,6.0,12.0,100,-99.99,,,-99.99,,2013-03-03 12:21:00,
2013-03-03 07:32:00,23.0,22.0,-100.00,North,0,4.0,11.0,99,-99.99,,,-99.99,,2013-03-03 12:32:00,
2013-03-03 07:43:00,23.0,23.0,-100.00,North,0,6.0,10.0,100,-99.99,,,-99.99,,2013-03-03 12:43:00,
2013-03-03 07:52:00,23.0,23.0,-100.00,North,0,7.0,10.0,99,-99.99,,,-99.99,,2013-03-03 12:52:00,
2013-03-03 08:01:00,23.0,23.0,-100.00,NNW,335,5.0,12.0,99,-99.99,,,-99.99,,2013-03-03 13:01:00,
2013-03-03 08:11:00,23.0,23.0,-100.00,North,0,7.0,9.0,99,-99.99,,,-99.99,,2013-03-03 13:11:00,
2013-03-03 08:22:00,23.0,23.0,-100.00,North,0,7.0,11.0,100,-99.99,,,-99.99,,2013-03-03 13:22:00,
2013-03-03 08:32:00,23.0,23.0,-100.00,NW,325,7.0,12.0,99,-99.99,,,-99.99,,2013-03-03 13:32:00,
2013-03-03 08:42:00,23.0,23.0,-100.00,NNW,340,7.0,13.0,99,-99.99,,,-99.99,,2013-03-03 13:42:00,
2013-03-03 08:52:00,23.0,23.0,-100.00,North,0,6.0,11.0,99,-99.99,,,-99.99,,2013-03-03 13:52:00,
2013-03-03 09:02:00,24.0,24.0,-100.00,North,5,4.0,10.0,100,-99.99,,,-99.99,,2013-03-03 14:02:00,
2013-03-03 09:11:00,24.0,24.0,-100.00,North,5,6.0,10.0,99,-99.99,,,-99.99,,2013-03-03 14:11:00,
2013-03-03 09:21:00,24.0,24.0,-100.00,North,0,6.0,10.0,99,-99.99,,,-99.99,,2013-03-03 14:21:00,
2013-03-03 09:32:00,24.0,24.0,-100.00,North,0,7.0,11.0,99,-99.99,,,-99.99,,2013-03-03 14:32:00,
2013-03-03 09:42:00,24.0,24.0,-100.00,North,0,7.0,13.0,99,-99.99,,,-99.99,,2013-03-03 14:42:00,
2013-03-03 09:52:00,24.0,24.0,-100.00,North,0,6.0,12.0,99,-99.99,,,-99.99,,2013-03-03 14:52:00,
2013-03-03 10:02:00,23.0,23.0,-100.00,NNW,340,9.0,16.0,99,-99.99,,,-99.99,,2013-03-03 15:02:00,
2013-03-03 10:11:00,24.0,24.0,-100.00,North,0,7.0,13.0,99,-99.99,,,-99.99,,2013-03-03 15:11:00,
2013-03-03 10:22:00,24.0,24.0,-100.00,North,0,7.0,13.0,99,-99.99,,,-99.99,,2013-03-03 15:22:00,
2013-03-03 10:32:00,24.0,24.0,-100.00,NNW,330,7.0,11.0,99,-99.99,,,-99.99,,2013-03-03 15:32:00,
2013-03-03 10:42:00,24.0,24.0,-100.00,North,0,7.0,12.0,99,-99.99,,,-99.99,,2013-03-03 15:42:00,
2013-03-03 10:52:00,24.0,24.0,-100.00,NNW,345,7.0,12.0,99,-99.99,,,-99.99,,2013-03-03 15:52:00,
2013-03-03 11:02:00,24.0,24.0,-100.00,North,0,7.0,12.0,99,-99.99,,,-99.99,,2013-03-03 16:02:00,
2013-03-03 11:12:00,24.0,24.0,-100.00,North,0,7.0,15.0,99,-99.99,,,-99.99,,2013-03-03 16:12:00,
2013-03-03 11:22:00,25.0,25.0,-100.00,North,0,8.0,12.0,99,-99.99,,,-99.99,,2013-03-03 16:22:00,
2013-03-03 11:32:00,24.0,24.0,-100.00,North,350,6.0,13.0,99,-99.99,,,-99.99,,2013-03-03 16:32:00,
2013-03-03 11:42:00,25.0,25.0,-100.00,North,0,7.0,14.0,99,-99.99,,,-99.99,,2013-03-03 16:42:00,
2013-03-03 11:52:00,25.0,25.0,-100.00,North,0,7.0,14.0,99,-99.99,,,-99.99,,2013-03-03 16:52:00,
2013-03-03 12:01:00,26.0,26.0,-100.00,North,0,4.0,11.0,99,-99.99,,,-99.99,,2013-03-03 17:01:00,
2013-03-03 12:11:00,24.0,24.0,-100.00,North,0,7.0,11.0,99,-99.99,,,-99.99,,2013-03-03 17:11:00,
2013-03-03 12:22:00,24.0,24.0,-100.00,NNW,345,6.0,12.0,99,-99.99,,,-99.99,,2013-03-03 17:22:00,
2013-03-03 12:32:00,24.0,24.0,-100.00,North,0,9.0,13.0,99,-99.99,,,-99.99,,2013-03-03 17:32:00,
2013-03-03 12:42:00,24.0,24.0,-100.00,North,0,9.0,14.0,100,-99.99,,,-99.99,,2013-03-03 17:42:00,
2013-03-03 12:52:00,24.0,24.0,-100.00,North,0,9.0,13.0,99,-99.99,,,-99.99,,2013-03-03 17:52:00,
2013-03-03 13:02:00,25.0,25.0,-100.00,NNW,330,4.0,12.0,99,-99.99,,,-99.99,,2013-03-03 18:02:00,
2013-03-03 13:11:00,24.0,24.0,-100.00,North,0,7.0,12.0,99,-99.99,,,-99.99,,2013-03-03 18:11:00,
2013-03-03 13:21:00,24.0,24.0,-100.00,NNW,330,11.0,14.0,99,-99.99,,,-99.99,,2013-03-03 18:21:00,
2013-03-03 13:32:00,24.0,24.0,-100.00,North,0,8.0,13.0,99,-99.99,,,-99.99,,2013-03-03 18:32:00,
2013-03-03 13:42:00,24.0,24.0,-100.00,North,0,7.0,14.0,99,-99.99,,,-99.99,,2013-03-03 18:42:00,
2013-03-03 13:52:00,24.0,24.0,-100.00,North,0,9.0,12.0,99,-99.99,,,-99.99,,2013-03-03 18:52:00,
2013-03-03 14:02:00,24.0,24.0,-100.00,North,0,9.0,14.0,99,-99.99,,,-99.99,,2013-03-03 19:02:00,
2013-03-03 14:11:00,24.0,24.0,-100.00,North,0,9.0,15.0,99,-99.99,,,-99.99,,2013-03-03 19:11:00,
2013-03-03 14:22:00,24.0,24.0,-100.00,North,0,9.0,15.0,99,-99.99,,,-99.99,,2013-03-03 19:22:00,
2013-03-03 14:32:00,24.0,24.0,-100.00,North,355,6.0,12.0,99,-99.99,,,-99.99,,2013-03-03 19:32:00,
2013-03-03 14:42:00,24.0,24.0,-100.00,NNW,345,6.0,14.0,99,-99.99,,,-99.99,,2013-03-03 19:42:00,
2013-03-03 14:52:00,24.0,24.0,-100.00,NW,320,8.0,12.0,99,-99.99,,,-99.99,,2013-03-03 19:52:00,
2013-03-03 15:01:00,24.0,24.0,-100.00,NNW,335,5.0,15.0,99,-99.99,,,-99.99,,2013-03-03 20:01:00,
2013-03-03 15:11:00,24.0,24.0,-100.00,North,355,7.0,12.0,99,-99.99,,,-99.99,,2013-03-03 20:11:00,
2013-03-03 15:21:00,24.0,24.0,-100.00,North,0,7.0,12.0,99,-99.99,,,-99.99,,2013-03-03 20:21:00,
2013-03-03 15:32:00,24.0,24.0,-100.00,North,0,7.0,14.0,99,-99.99,,,-99.99,,2013-03-03 20:32:00,
2013-03-03 15:42:00,24.0,24.0,-100.00,NW,315,8.0,11.0,99,-99.99,,,-99.99,,2013-03-03 20:42:00,
2013-03-03 15:52:00,24.0,24.0,-100.00,NNW,340,7.0,12.0,99,-99.99,,,-99.99,,2013-03-03 20:52:00,
2013-03-03 16:02:00,24.0,24.0,-100.00,NNW,335,7.0,14.0,99,-99.99,,,-99.99,,2013-03-03 21:02:00,
2013-03-03 16:11:00,24.0,24.0,-100.00,NNW,340,7.0,14.0,99,-99.99,,,-99.99,,2013-03-03 21:11:00,
2013-03-03 16:22:00,24.0,24.0,-100.00,NNW,335,8.0,11.0,99,-99.99,,,-99.99,,2013-03-03 21:22:00,
2013-03-03 16:32:00,24.0,24.0,-100.00,NNW,345,6.0,12.0,99,-99.99,,,-99.99,,2013-03-03 21:32:00,
2013-03-03 16:42:00,24.0,24.0,-100.00,NW,320,7.0,12.0,99,-99.99,,,-99.99,,2013-03-03 21:42:00,
2013-03-03 16:52:00,24.0,24.0,-100.00,NW,315,11.0,15.0,99,-99.99,,,-99.99,,2013-03-03 21:52:00,
2013-03-03 17:02:00,25.0,24.0,-100.00,NW,320,10.0,15.0,99,-99.99,,,-99.99,,2013-03-03 22:02:00,
2013-03-03 17:11:00,25.0,24.0,-100.00,NW,315,7.0,12.0,98,-99.99,,,-99.99,,2013-03-03 22:11:00,
2013-03-03 17:22:00,25.0,24.0,-100.00,NW,315,7.0,12.0,99,-99.99,,,-99.99,,2013-03-03 22:22:00,
2013-03-03 17:32:00,25.0,25.0,-100.00,North,0,6.0,10.0,99,-99.99,,,-99.99,,2013-03-03 22:32:00,
2013-03-03 17:42:00,24.0,24.0,-100.00,NNW,330,9.0,12.0,99,-99.99,,,-99.99,,2013-03-03 22:42:00,
2013-03-03 17:52:00,24.0,24.0,-100.00,NW,315,10.0,14.0,98,-99.99,,,-99.99,,2013-03-03 22:52:00,
2013-03-03 18:01:00,24.0,24.0,-100.00,NW,310,9.0,14.0,96,-99.99,,,-99.99,,2013-03-03 23:01:00,
2013-03-03 18:11:00,24.0,23.0,-100.00,NW,310,7.0,14.0,96,-99.99,,,-99.99,,2013-03-03 23:11:00,
2013-03-03 18:21:00,24.0,23.0,-100.00,NW,325,8.0,12.0,94,-99.99,,,-99.99,,2013-03-03 23:21:00,
2013-03-03 18:32:00,24.0,22.0,-100.00,NW,320,7.0,14.0,90,-99.99,,,-99.99,,2013-03-03 23:32:00,
2013-03-03 18:42:00,24.0,22.0,-100.00,NW,325,7.0,12.0,90,-99.99,,,-99.99,,2013-03-03 23:42:00,
2013-03-03 18:52:00,24.0,22.0,-100.00,NW,325,8.0,12.0,90,-99.99,,,-99.99,,2013-03-03 23:52:00,
2013-03-03 19:02:00,24.0,22.0,-100.00,NW,320,7.0,13.0,92,-99.99,,,-99.99,,2013-03-04 00:02:00,
2013-03-03 19:11:00,24.0,22.0,-100.00,NW,305,6.0,14.0,94,-99.99,,,-99.99,,2013-03-04 00:11:00,
2013-03-03 19:21:00,24.0,22.0,-100.00,NW,315,10.0,12.0,94,-99.99,,,-99.99,,2013-03-04 00:21:00,
2013-03-03 19:32:00,24.0,22.0,-100.00,NNW,340,6.0,14.0,94,-99.99,,,-99.99,,2013-03-04 00:32:00,
2013-03-03 19:42:00,24.0,22.0,-100.00,WNW,295,6.0,9.0,94,-99.99,,,-99.99,,2013-03-04 00:42:00,
2013-03-03 19:52:00,24.0,23.0,-100.00,NW,320,7.0,11.0,96,-99.99,,,-99.99,,2013-03-04 00:52:00,
2013-03-03 20:01:00,24.0,23.0,-100.00,NW,310,6.0,11.0,96,-99.99,,,-99.99,,2013-03-04 01:01:00,
2013-03-03 20:12:00,24.0,23.0,-100.00,NNW,330,7.0,11.0,97,-99.99,,,-99.99,,2013-03-04 01:12:00,
2013-03-03 20:21:00,24.0,23.0,-100.00,NW,310,4.0,10.0,98,-99.99,,,-99.99,,2013-03-04 01:21:00,
2013-03-03 20:32:00,24.0,24.0,-100.00,NNW,330,7.0,12.0,98,-99.99,,,-99.99,,2013-03-04 01:32:00,
2013-03-03 20:42:00,24.0,24.0,-100.00,NW,305,8.0,11.0,99,-99.99,,,-99.99,,2013-03-04 01:42:00,
2013-03-03 20:51:00,24.0,24.0,-100.00,NW,315,7.0,11.0,99,-99.99,,,-99.99,,2013-03-04 01:51:00,
2013-03-03 21:01:00,24.0,24.0,-100.00,NNW,330,4.0,9.0,99,-99.99,,,-99.99,,2013-03-04 02:01:00,
2013-03-03 21:11:00,24.0,24.0,-100.00,NNW,340,4.0,9.0,99,-99.99,,,-99.99,,2013-03-04 02:11:00,
2013-03-03 21:22:00,24.0,24.0,-100.00,NNE,20,6.0,7.0,99,-99.99,,,-99.99,,2013-03-04 02:22:00,
2013-03-03 21:32:00,23.0,23.0,-100.00,NE,40,4.0,8.0,99,-99.99,,,-99.99,,2013-03-04 02:32:00,
2013-03-03 21:42:00,23.0,23.0,-100.00,NNE,25,4.0,9.0,99,-99.99,,,-99.99,,2013-03-04 02:42:00,
2013-03-03 21:52:00,23.0,23.0,-100.00,North,0,3.0,9.0,99,-99.99,,,-99.99,,2013-03-04 02:52:00,
2013-03-03 22:02:00,23.0,23.0,-100.00,North,0,5.0,7.0,99,-99.99,,,-99.99,,2013-03-04 03:02:00,
2013-03-03 22:11:00,23.0,23.0,-100.00,North,5,5.0,10.0,99,-99.99,,,-99.99,,2013-03-04 03:11:00,
2013-03-03 22:22:00,23.0,23.0,-100.00,North,0,4.0,10.0,99,-99.99,,,-99.99,,2013-03-04 03:22:00,
2013-03-03 22:32:00,23.0,23.0,-100.00,North,355,5.0,9.0,99,-99.99,,,-99.99,,2013-03-04 03:32:00,
2013-03-03 22:42:00,23.0,23.0,-100.00,North,0,5.0,9.0,99,-99.99,,,-99.99,,2013-03-04 03:42:00,
2013-03-03 22:52:00,23.0,23.0,-100.00,NNW,330,4.0,9.0,99,-99.99,,,-99.99,,2013-03-04 03:52:00,
2013-03-03 23:01:00,23.0,22.0,-100.00,North,0,4.0,11.0,99,-99.99,,,-99.99,,2013-03-04 04:01:00,
2013-03-03 23:11:00,23.0,22.0,-100.00,NNW,345,4.0,8.0,99,-99.99,,,-99.99,,2013-03-04 04:11:00,
2013-03-03 23:22:00,22.0,22.0,-100.00,NNW,345,8.0,12.0,99,-99.99,,,-99.99,,2013-03-04 04:22:00,
2013-03-03 23:32:00,22.0,22.0,-100.00,North,0,5.0,9.0,99,-99.99,,,-99.99,,2013-03-04 04:32:00,
2013-03-03 23:42:00,22.0,22.0,-100.00,North,0,6.0,11.0,99,-99.99,,,-99.99,,2013-03-04 04:42:00,
2013-03-03 23:52:00,22.0,22.0,-100.00,North,0,8.0,12.0,99,-99.99,,,-99.99,,2013-03-04 04:52:00,